N0COP Weather Reports


time (UTC)temp
F
wind
direction
speed
knots
gust
knots
rain 1hr
in
rain 24hr
in
rain mn
in
humidity
%
barometer
mb
20260505124538 34 316 2.6 5.2 0.01 0.18 0.08 93 1014.4
20260505123036 34 301 1.7 4.3 0.01 0.18 0.08 93 1014.2
20260505121537 35 317 3.5 6.1 0.03 0.18 0.08 93 1014.3
20260505120032 35 344 2.6 6.1 0.03 0.18 0.08 93 1014.1
20260505114538 35 350 3.5 11.3 0.03 0.17 0.07 93 1013.9
20260505113028 36 328 3.5 6.1 0.03 0.17 0.07 92 1013.9
20260505111526 37 333 2.6 10.4 0.02 0.15 0.05 92 1013.7
20260505101512 39 347 4.3 11.3 0.03 0.13 0.03 93 1012.9
20260505100010 40 331 5.2 10.4 0.02 0.12 0.02 93 1012.6
20260505094507 40 345 6.1 11.3 0.02 0.12 0.02 92 1012.5
20260505093005 41 340 4.3 10.4 0.00 0.10 0.00 92 1012.4
20260505091501 42 321 4.3 9.6 0.00 0.10 0.00 92 1012.5
20260505084558 42 320 2.6 9.6 0.00 0.10 0.00 91 1012.4
20260505083056 43 360 2.6 7.8 0.00 0.10 0.00 91 1012.4
20260505081559 45 335 2.6 7.8 0.00 0.10 0.00 91 1012.4
20260505080049 46 304 1.7 4.3 0.00 0.10 0.00 92 1012.3
20260505074604 46 242 0.0 0.0 0.00 0.10 0.00 92 1012.2
20260505073049 46 242 0.0 0.0 0.00 0.10 0.00 91 1012.2
20260505071543 46 242 0.0 0.0 0.00 0.10 0.00 91 1012.1
20260505070045 46 242 0.0 1.7 0.00 0.10 0.00 91 1012.1
20260505064542 46 242 0.0 1.7 0.00 0.10 0.00 91 1012.1
20260505063044 46 242 0.0 0.9 0.00 0.10 0.00 91 1012.2
20260505061601 46 242 0.0 0.0 0.00 0.10 0.00 91 1012.2
20260505060042 46 242 0.0 1.7 0.00 0.10 0.00 91 1012.2
20260505054545 45 242 0.9 3.5 0.00 0.10 0.10 91 1012.4
20260505053036 45 242 0.9 2.6 0.00 0.10 0.10 91 1012.1
20260505051536 46 242 0.9 2.6 0.00 0.10 0.10 90 1012.0
20260505041529 46 242 0.9 4.3 0.04 0.09 0.09 88 1012.6
20260505040046 47 248 0.0 3.5 0.05 0.08 0.08 88 1012.6
20260505034546 47 248 0.0 4.3 0.06 0.07 0.07 86 1012.5
20260505033050 48 240 1.7 7.0 0.05 0.06 0.06 85 1012.7
20260505031541 48 267 4.3 8.7 0.04 0.05 0.05 83 1012.4
20260505030036 49 275 4.3 11.3 0.02 0.03 0.03 80 1012.1
20260505024556 51 292 2.6 6.1 0.00 0.01 0.01 73 1011.7
20260505023038 51 311 3.5 6.1 0.00 0.01 0.01 69 1011.5
20260505021545 51 335 3.5 7.0 0.00 0.01 0.01 70 1011.3
20260505020050 52 333 3.5 9.6 0.00 0.01 0.01 68 1011.5
20260505014547 54 319 5.2 10.4 0.00 0.01 0.01 60 1011.4
20260505013047 56 329 1.7 5.2 0.00 0.01 0.01 55 1011.0
20260505011553 56 239 1.7 3.5 0.00 0.01 0.01 55 1011.1
20260505010039 56 238 0.9 2.6 0.00 0.01 0.01 51 1010.9
20260505004543 57 238 0.9 4.3 0.00 0.01 0.01 47 1010.8
20260505003038 58 265 0.9 2.6 0.00 0.01 0.01 48 1010.9
20260505001537 59 264 1.7 5.2 0.00 0.01 0.01 45 1010.6
20260505000030 59 325 1.7 7.0 0.00 0.01 0.01 43 1010.4
20260504234529 60 284 2.6 5.2 0.00 0.01 0.01 43 1010.4
20260504233029 60 319 3.5 8.7 0.00 0.01 0.01 42 1010.2
20260504231529 60 323 4.3 9.6 0.00 0.01 0.01 43 1010.3
20260504230043 60 293 4.3 9.6 0.00 0.01 0.01 42 1010.2
20260504224539 60 320 4.3 11.3 0.00 0.01 0.01 42 1010.2
20260504223041 60 325 3.5 10.4 0.00 0.01 0.01 45 1010.3
20260504221546 60 292 3.5 8.7 0.00 0.01 0.01 40 1010.1
20260504220051 61 355 7.0 14.8 0.00 0.01 0.01 39 1009.7
20260504214536 62 5 7.8 17.4 0.00 0.01 0.01 35 1009.3
20260504213034 63 360 7.8 14.8 0.00 0.01 0.01 35 1009.3
20260504211533 67 49 2.6 6.1 0.00 0.01 0.01 27 1009.2
20260504210028 66 105 1.7 5.2 0.00 0.01 0.01 29 1009.2
20260504204536 63 188 0.9 2.6 0.00 0.01 0.01 36 1009.4
20260504203027 62 188 1.7 6.1 0.01 0.01 0.01 38 1009.7
20260504201527 61 126 1.7 6.1 0.01 0.01 0.01 39 1009.8
20260504200043 59 111 5.2 11.3 0.01 0.01 0.01 43 1009.9
20260504194543 58 193 3.5 8.7 0.01 0.01 0.01 43 1010.8
20260504193037 62 188 5.2 11.3 0.00 0.00 0.00 36 1010.3
20260504191540 66 167 5.2 7.0 0.00 0.00 0.00 24 1009.5
20260504190049 68 261 2.6 7.0 0.00 0.00 0.00 21 1009.2
20260504184556 69 28 0.9 7.0 0.00 0.00 0.00 20 1009.1
20260504183047 69 335 4.3 9.6 0.00 0.00 0.00 22 1009.2
20260504181547 69 320 4.3 10.4 0.00 0.00 0.00 22 1009.3
20260504180021 69 349 3.5 9.6 0.00 0.00 0.00 24 1009.5
20260504174519 69 267 4.3 12.2 0.00 0.00 0.00 23 1009.7
20260504173016 69 302 6.1 13.0 0.00 0.00 0.00 23 1010.0
20260504171513 68 282 7.8 12.2 0.00 0.00 0.00 25 1010.1